User: anonymous   Login
Location: Unspecified
(0.0000°N, 0.0000°E)
Time: 04:25:04
(UTC+00:00)
Language:

OPTUS 1C - Orbit

View from above orbital plane
View from above orbital plane
View from above satellite
View from above satellite

Ground track
Ground track

The orbit data is extracted from the following two-line orbital elements,

1 27831U 03028B   14356.76872002 -.00000142  00000-0  00000+0 0  3109
2 27831 000.0253 214.7199 0003569 038.0766 271.1977 01.00271239 42262
Epoch (UTC): 22 December 2014 18:26:57
Eccentricity: 0.0003569
inclination: 0.0253°
perigee height: 35771 km
apogee height: 35801 km
right ascension of ascending node: 214.7199°
argument of perigee: 38.0766°
revolutions per day: 1.00271239
mean anomaly at epoch: 271.1977°
orbit number at epoch: 4226

The dashed part of the orbit path shows where the satellite is in the earth's shadow,  

DLR